Tracking 18624 objects as of 29-April-2017
HD Live streaming from Space Station
objects crossing your sky now

COSMOS 469

Track COSMOS 469 now!
10-day predictions
COSMOS 469 is classified as:


NORAD ID: 5721
Int'l Code: 1971-117A
Perigee: 937.0 km
Apogee: 1,033.5 km
Inclination: 64.5 °
Period: 104.7 minutes
Semi major axis: 7356 km
RCS: 2.893 m2 (large)
Launch date: December 25, 1971
Source: Commonwealth of Independent States (former USSR) (CIS)
Launch site: TYURATAM MISSILE AND SPACE COMPLEX (TTMTR)
Your satellite tracking list
Your tracking list is empty





NASA's NSSDC Master Catalog

Two Line Element Set (TLE):
1  5721U 71117A   17117.88894092 -.00000084 +00000-0 +66707-5 0  9991
2  5721 064.4894 038.6460 0065606 284.2919 075.0854 13.76015216278173
Source of the keplerian elements: AFSPC